• In Schweiz
  • Länderverzeichnis
  • Für 7 Tage
  • Wassertemperatur
  • Satellitenkarten
  • Wetterkarte
  • Widgets
  • user-avatar
    Anmelden

    Stündliche Wetter Kalemie

    Heute, 18 September, Dienstag

    Zeit Temperatur Niederschläge Wind Luftdruck Luftfeuchtigkeit
    00:00 +25°C° 0 mm 1 m/S 704 mmHg 77%
    01:00 +24°C° 0 mm 1 m/S 704 mmHg 81%
    02:00 +24°C° 0 mm 1 m/S 704 mmHg 84%
    03:00 +23°C° 0.8 mm 1 m/S 704 mmHg 88%
    04:00 +22°C° 0.8 mm 1 m/S 704 mmHg 93%
    05:00 +22°C° 0.8 mm 1 m/S 704 mmHg 97%
    06:00 +23°C° 0.2 mm 1 m/S 705 mmHg 94%
    07:00 +24°C° 0.2 mm 1 m/S 705 mmHg 91%
    08:00 +26°C° 0 mm 1 m/S 706 mmHg 87%
    09:00 +28°C° 1.2 mm 1 m/S 706 mmHg 81%
    10:00 +30°C° 1.2 mm 1 m/S 706 mmHg 75%
    11:00 +31°C° 1.2 mm 1 m/S 706 mmHg 69%
    12:00 +33°C° 0.5 mm 1 m/S 706 mmHg 61%
    13:00 +34°C° 0.5 mm 1 m/S 705 mmHg 54%
    14:00 +35°C° 0 mm 1 m/S 705 mmHg 46%
    15:00 +34°C° 0.1 mm 1 m/S 705 mmHg 51%
    16:00 +31°C° 0.1 mm 0 m/S 705 mmHg 55%
    17:00 +30°C° 0.1 mm 0 m/S 704 mmHg 60%
    18:00 +30°C° 0.1 mm 1 m/S 705 mmHg 65%
    19:00 +28°C° 0.1 mm 1 m/S 705 mmHg 69%
    20:00 +26°C° 0.1 mm 1 m/S 705 mmHg 73%
    21:00 +26°C° 0 mm 2 m/S 705 mmHg 77%
    22:00 +25°C° 0 mm 2 m/S 704 mmHg 81%
    23:00 +24°C° 0 mm 2 m/S 704 mmHg 85%

    Morgen, 19 September, Mittwoch

    Zeit Temperatur Niederschläge Wind Luftdruck Luftfeuchtigkeit
    00:00 +24°C° 0 mm 1 m/S 704 mmHg 87%
    01:00 +23°C° 0 mm 1 m/S 704 mmHg 88%
    02:00 +23°C° 0 mm 1 m/S 704 mmHg 89%
    03:00 +22°C° 0.7 mm 1 m/S 705 mmHg 91%
    04:00 +22°C° 0.7 mm 1 m/S 705 mmHg 94%
    05:00 +21°C° 0.7 mm 1 m/S 705 mmHg 97%
    06:00 +23°C° 0.7 mm 1 m/S 705 mmHg 94%
    07:00 +24°C° 0.7 mm 1 m/S 706 mmHg 92%
    08:00 +25°C° 0.7 mm 1 m/S 706 mmHg 90%
    09:00 +28°C° 0.2 mm 1 m/S 707 mmHg 77%
    10:00 +31°C° 0.2 mm 1 m/S 707 mmHg 65%
    11:00 +34°C° 0.2 mm 1 m/S 707 mmHg 52%
    12:00 +35°C° 0 mm 1 m/S 706 mmHg 48%
    13:00 +34°C° 0 mm 0 m/S 706 mmHg 44%
    14:00 +35°C° 0 mm 0 m/S 705 mmHg 40%
    15:00 +33°C° 0 mm 0 m/S 705 mmHg 46%
    16:00 +32°C° 0 mm 0 m/S 704 mmHg 51%
    17:00 +30°C° 0 mm 0 m/S 704 mmHg 56%
    18:00 +29°C° 0 mm 0 m/S 704 mmHg 59%
    19:00 +27°C° 0 mm 0 m/S 704 mmHg 62%
    20:00 +27°C° 0 mm 1 m/S 704 mmHg 65%
    21:00 +27°C° 0.1 mm 1 m/S 705 mmHg 69%
    22:00 +26°C° 0.1 mm 1 m/S 705 mmHg 73%
    23:00 +25°C° 0.1 mm 1 m/S 705 mmHg 77%

    übermorgen, 20 September, Donnerstag

    Zeit Temperatur Niederschläge Wind Luftdruck Luftfeuchtigkeit
    00:00 +24°C° 0.1 mm 1 m/S 705 mmHg 80%
    01:00 +24°C° 0.1 mm 2 m/S 705 mmHg 84%
    02:00 +23°C° 0.1 mm 2 m/S 704 mmHg 87%
    03:00 +23°C° 0.4 mm 2 m/S 704 mmHg 90%
    04:00 +22°C° 0.4 mm 1 m/S 704 mmHg 93%
    05:00 +22°C° 0.4 mm 1 m/S 705 mmHg 96%
    06:00 +23°C° 0.6 mm 1 m/S 705 mmHg 94%
    07:00 +24°C° 0.6 mm 1 m/S 706 mmHg 91%
    08:00 +25°C° 0.6 mm 1 m/S 707 mmHg 89%
    09:00 +27°C° 0.6 mm 1 m/S 707 mmHg 82%
    10:00 +29°C° 0.6 mm 1 m/S 707 mmHg 74%
    11:00 +31°C° 0.6 mm 1 m/S 707 mmHg 67%
    12:00 +32°C° 0.1 mm 1 m/S 707 mmHg 60%
    13:00 +33°C° 0.1 mm 1 m/S 706 mmHg 52%
    14:00 +34°C° 0.1 mm 1 m/S 706 mmHg 45%
    15:00 +34°C° 0 mm 1 m/S 705 mmHg 49%
    16:00 +33°C° 0 mm 1 m/S 705 mmHg 53%
    17:00 +30°C° 0 mm 0 m/S 704 mmHg 58%
    18:00 +28°C° 0 mm 0 m/S 704 mmHg 61%
    19:00 +26°C° 0 mm 0 m/S 704 mmHg 65%
    20:00 +24°C° 0 mm 0 m/S 704 mmHg 68%
    21:00 +24°C° 0 mm 0 m/S 704 mmHg 69%
    22:00 +25°C° 0 mm 1 m/S 704 mmHg 71%
    23:00 +25°C° 0 mm 1 m/S 705 mmHg 72%

    21 September, Freitag

    Zeit Temperatur Niederschläge Wind Luftdruck Luftfeuchtigkeit
    00:00 +25°C° 0 mm 1 m/S 704 mmHg 74%
    01:00 +24°C° 0 mm 1 m/S 704 mmHg 76%
    02:00 +24°C° 0 mm 1 m/S 703 mmHg 78%
    03:00 +23°C° 0.2 mm 1 m/S 704 mmHg 81%
    04:00 +21°C° 0.2 mm 0 m/S 704 mmHg 83%
    05:00 +20°C° 0.2 mm 0 m/S 704 mmHg 86%
    06:00 +22°C° 0 mm 0 m/S 705 mmHg 82%
    07:00 +23°C° 0 mm 0 m/S 706 mmHg 79%
    08:00 +25°C° 0 mm 0 m/S 706 mmHg 75%
    09:00 +28°C° 0 mm 0 m/S 707 mmHg 66%
    10:00 +33°C° 0 mm 1 m/S 707 mmHg 57%
    11:00 +36°C° 0 mm 1 m/S 707 mmHg 49%
    12:00 +36°C° 0.2 mm 1 m/S 706 mmHg 47%
    13:00 +35°C° 0.2 mm 1 m/S 705 mmHg 45%
    14:00 +35°C° 0.2 mm 1 m/S 705 mmHg 44%
    15:00 +34°C° 0 mm 1 m/S 704 mmHg 49%
    16:00 +33°C° 0 mm 1 m/S 704 mmHg 54%
    17:00 +32°C° 0 mm 1 m/S 704 mmHg 59%
    18:00 +30°C° 0 mm 1 m/S 704 mmHg 64%
    19:00 +28°C° 0 mm 1 m/S 704 mmHg 69%
    20:00 +26°C° 0 mm 1 m/S 704 mmHg 74%
    21:00 +26°C° 0.3 mm 1 m/S 704 mmHg 78%
    22:00 +25°C° 0.3 mm 1 m/S 704 mmHg 81%
    23:00 +24°C° 0.3 mm 1 m/S 704 mmHg 84%

    22 September, Samstag

    Zeit Temperatur Niederschläge Wind Luftdruck Luftfeuchtigkeit
    00:00 +24°C° 0.3 mm 1 m/S 704 mmHg 87%
    01:00 +23°C° 0.3 mm 1 m/S 704 mmHg 90%
    02:00 +23°C° 0.3 mm 1 m/S 704 mmHg 93%
    03:00 +22°C° 0.3 mm 1 m/S 704 mmHg 94%
    04:00 +22°C° 0.3 mm 1 m/S 704 mmHg 94%
    05:00 +22°C° 0.3 mm 1 m/S 704 mmHg 95%
    06:00 +23°C° 0.2 mm 1 m/S 705 mmHg 92%
    07:00 +25°C° 0.2 mm 1 m/S 705 mmHg 88%
    08:00 +24°C° 0.2 mm 0 m/S 706 mmHg 85%
    09:00 +28°C° 0.4 mm 1 m/S 706 mmHg 76%
    10:00 +31°C° 0.4 mm 1 m/S 706 mmHg 67%
    11:00 +33°C° 0.4 mm 1 m/S 706 mmHg 58%
    12:00 +33°C° 0.2 mm 1 m/S 706 mmHg 56%
    13:00 +34°C° 0.2 mm 2 m/S 705 mmHg 54%
    14:00 +34°C° 0.2 mm 2 m/S 704 mmHg 51%
    15:00 +32°C° 0 mm 2 m/S 704 mmHg 55%
    16:00 +31°C° 0 mm 1 m/S 704 mmHg 59%
    17:00 +31°C° 0 mm 1 m/S 704 mmHg 62%
    18:00 +29°C° 0 mm 1 m/S 704 mmHg 66%
    19:00 +27°C° 0 mm 1 m/S 704 mmHg 70%
    20:00 +26°C° 0 mm 1 m/S 704 mmHg 73%
    21:00 +25°C° 0.2 mm 1 m/S 704 mmHg 75%
    22:00 +24°C° 0.2 mm 1 m/S 704 mmHg 77%
    23:00 +24°C° 0.2 mm 1 m/S 704 mmHg 79%

    23 September, Sonntag

    Zeit Temperatur Niederschläge Wind Luftdruck Luftfeuchtigkeit
    00:00 +24°C° 0 mm 1 m/S 704 mmHg 79%
    01:00 +23°C° 0 mm 1 m/S 703 mmHg 79%
    02:00 +23°C° 0 mm 1 m/S 703 mmHg 79%
    03:00 +23°C° 0.2 mm 1 m/S 703 mmHg 81%
    04:00 +22°C° 0.2 mm 1 m/S 704 mmHg 83%
    05:00 +22°C° 0.2 mm 1 m/S 704 mmHg 85%
    06:00 +23°C° 0.8 mm 1 m/S 705 mmHg 85%
    07:00 +24°C° 0.8 mm 1 m/S 706 mmHg 86%
    08:00 +25°C° 0.8 mm 1 m/S 706 mmHg 86%
    09:00 +28°C° 0.1 mm 1 m/S 706 mmHg 73%
    10:00 +31°C° 0.1 mm 1 m/S 706 mmHg 61%
    11:00 +33°C° 0.1 mm 1 m/S 706 mmHg 48%
    12:00 +35°C° 0 mm 2 m/S 706 mmHg 45%
    13:00 +36°C° 0 mm 2 m/S 705 mmHg 43%
    14:00 +37°C° 0 mm 2 m/S 704 mmHg 41%
    15:00 +34°C° 0 mm 1 m/S 704 mmHg 46%
    16:00 +33°C° 0 mm 1 m/S 704 mmHg 51%
    17:00 +32°C° 0 mm 1 m/S 704 mmHg 56%
    18:00 +30°C° 0 mm 1 m/S 704 mmHg 62%
    19:00 +28°C° 0 mm 1 m/S 704 mmHg 68%
    20:00 +26°C° 0 mm 2 m/S 704 mmHg 74%
    21:00 +26°C° 0 mm 2 m/S 704 mmHg 73%
    22:00 +25°C° 0 mm 2 m/S 704 mmHg 73%
    23:00 +25°C° 0 mm 2 m/S 704 mmHg 72%
    Mehr zeigen